Location: Mount Cross
(36.6390°N, 79.4878°W)
Time: 18:56:59
(UTC+00:00)

Courier 1B Rocket - Pass Details

Date: 23 March 2023
Orbit: 920 x 1202 km, 28.2° (Epoch: 05 June)

Event Time Altitude Azimuth Distance (km) Brightness Sun altitude
Rises 07:52:11 0° 259° (W) 3,548 - -39.2°
Reaches altitude 10° 07:56:05 10° 236° (SW) 2,604 - -38.6°
Maximum altitude 07:59:15 14° 205° (SSW) 2,315 - -38.1°
Drops below altitude 10° 08:02:26 10° 174° (S) 2,635 - -37.6°
Sets 08:06:27 0° 151° (SSE) 3,618 - -36.9°
